RH
5 5 5 5 5 5 5 5 6 6 6 6 6 6 6 6 6 6 7 6 6 6 7 7 7 7 7 7 7 7 7 7 6 6 6 6 6 6 6 6 6 6 6 6 6 6 6 6 6 6 7 7 7 7 7 7 8 8 8 9 9 9 9 10 14 19 22 24 24 24 24 23 23 23 24 22 20 20 20 23 23 22 21 19 20 21 20 20 20 21 21 20 19 17 16 14 13 13 13 12 12 12 12
5 5 5 5 5 5 6 6 6 6 6 6 7 7 7 7 7 7 7 7 7 7 7 7 7 7 7 7 7 8 8 7 7 7 7 7 7 7 7 7 7 7 7 7 7 7 7 7 7 7 7 7 7 7 7 8 9 9 9 9 9 9 9 9 11 14 19 23 24 25 24 24 24 23 24 23 22 21 19 21 21 21 20 19 20 20 18 19 20 22 22 22 22 22 21 19 17 15 14 13 13 13 12
6 6 6 6 6 6 6 7 7 7 7 7 7 7 7 8 8 8 8 8 7 7 7 7 7 7 7 7 8 8 8 8 8 8 8 8 8 8 8 8 8 8 8 8 8 8 8 8 8 8 8 8 8 8 8 9 10 10 10 10 10 9 9 9 9 11 15 20 23 24 24 25 24 24 25 24 23 22 21 20 20 20 21 21 20 20 19 18 18 19 20 21 22 23 24 23 22 20 18 16 15 14 14
7 7 7 7 7 7 7 7 8 8 8 8 8 8 8 8 8 8 8 8 8 8 8 8 8 8 7 8 8 8 8 8 9 9 9 9 9 9 9 9 9 9 9 9 9 9 9 9 9 9 9 8 8 8 8 9 10 10 10 10 10 10 10 10 10 10 12 17 22 25 25 24 25 25 25 25 24 23 23 23 22 20 19 20 21 21 21 21 20 19 18 18 19 20 23 23 24 24 22 20 18 17 16
8 8 7 7 8 8 8 8 8 8 8 8 8 8 8 8 8 9 9 9 9 9 9 8 8 8 8 8 8 8 8 8 8 9 9 9 9 9 9 9 9 9 9 9 9 9 9 9 9 9 9 9 9 9 9 9 10 10 10 10 10 10 10 10 10 11 12 17 22 25 25 25 25 25 25 25 24 23 23 23 22 20 20 20 21 21 21 22 22 21 20 19 18 18 19 20 21 23 23 23 23 22 20
8 8 8 8 8 8 8 8 8 8 8 8 8 8 8 8 9 9 10 10 10 10 10 9 9 8 8 8 9 9 9 9 9 9 9 9 9 9 9 9 9 9 9 9 9 9 9 9 9 9 9 9 10 10 10 10 10 10 10 10 10 10 11 11 11 12 15 18 22 25 24 25 24 24 24 24 23 22 22 22 21 19 20 20 20 20 22 23 23 22 20 20 20 20 19 18 18 19 20 23 24 24 24
8 8 8 8 8 8 8 8 8 8 8 8 8 8 8 9 9 9 11 10 10 9 9 9 9 8 8 8 8 9 9 9 9 9 10 10 10 10 10 10 10 10 10 10 10 10 10 10 10 11 11 11 11 11 11 11 11 11 11 11 11 11 11 12 13 14 17 20 22 23 24 24 25 24 23 22 21 20 20 19 18 17 18 18 19 19 20 21 21 21 21 20 20 22 22 21 20 18 18 19 20 22 25
8 8 8 7 8 8 8 8 8 8 8 8 8 9 9 10 10 10 10 10 10 10 10 9 9 9 8 8 8 9 9 9 9 10 10 10 10 10 11 11 11 11 11 11 11 11 12 12 12 12 12 12 12 12 12 12 11 11 11 11 11 12 12 12 13 15 18 20 21 22 22 22 22 22 20 19 18 17 16 15 15 16 16 16 17 17 17 19 20 20 19 19 20 21 22 23 23 22 19 19 19 21 22
8 8 8 8 8 8 9 9 9 10 10 10 10 10 10 11 11 11 11 11 11 11 10 10 10 10 9 9 9 9 10 10 10 10 10 10 10 11 11 11 11 11 11 11 12 12 12 12 13 13 12 12 12 11 11 11 11 11 11 11 11 11 11 12 13 14 17 18 19 19 19 19 19 18 17 16 15 14 14 14 14 15 15 15 15 15 15 16 18 19 18 19 20 21 22 21 21 22 22 21 21 21 21
9 8 9 9 9 10 11 11 12 12 12 12 12 12 12 12 12 13 12 12 12 11 11 11 10 10 10 11 11 11 11 11 11 11 11 11 11 10 10 10 10 10 11 11 11 11 12 12 12 12 12 11 11 11 11 11 11 11 11 11 11 11 11 11 11 12 14 15 17 18 17 17 16 15 14 14 13 14 14 15 16 16 14 14 14 14 14 15 16 17 18 19 20 21 21 21 22 23 24 23 24 24 24
9 9 9 10 10 11 12 13 13 14 14 14 14 14 14 14 14 14 13 13 13 12 12 11 11 11 11 12 12 12 12 12 12 12 12 12 11 10 10 10 10 10 10 10 10 10 11 11 11 10 10 10 10 10 10 10 10 10 10 10 10 10 11 10 11 11 12 13 15 16 16 16 15 13 12 13 13 14 15 18 18 17 15 14 14 14 15 16 17 18 18 20 21 21 21 22 23 24 24 23 24 24 25
9 9 10 10 11 12 13 14 15 15 15 15 15 15 15 15 15 15 15 14 14 13 13 13 12 12 12 13 13 13 13 13 13 13 13 12 11 10 10 9 9 9 10 10 10 9 9 9 9 9 9 9 9 9 9 9 9 9 9 10 10 10 10 10 11 11 10 13 14 15 15 14 13 12 11 12 12 13 14 16 17 16 14 14 14 15 16 17 19 20 21 21 22 23 23 23 24 24 24 23 24 25 25
9 9 10 11 12 14 15 16 16 16 16 16 16 16 16 16 16 16 16 16 15 15 15 14 14 14 13 13 14 14 14 14 14 14 14 12 11 10 10 9 9 9 9 9 9 8 8 8 8 9 9 9 9 9 9 8 8 8 8 8 9 9 9 9 9 9 9 10 11 12 13 12 11 10 10 10 11 11 12 12 13 13 13 13 14 15 17 19 21 23 24 24 25 26 25 25 25 25 26 25 25 25 25
10 10 11 12 14 15 16 17 17 17 17 17 18 18 18 17 17 17 17 17 17 17 17 16 16 15 15 15 15 15 15 15 15 15 14 13 12 11 10 9 9 9 9 9 8 8 8 8 8 8 9 9 9 8 8 8 8 8 8 8 8 8 9 9 8 8 8 9 9 9 10 10 9 9 8 9 9 10 10 10 11 11 13 13 14 16 18 21 23 25 26 26 27 27 27 27 27 27 27 27 27 27 27
13 14 14 15 16 17 18 18 18 18 18 19 19 19 19 19 19 19 19 19 18 18 18 18 17 17 16 16 16 16 16 16 16 15 14 13 12 11 10 10 9 9 9 9 8 8 8 8 8 9 9 9 9 9 8 8 8 8 8 8 8 8 9 9 9 9 8 9 9 9 9 9 9 9 9 9 9 10 10 10 10 11 12 14 14 16 19 21 22 23 24 26 27 27 28 29 29 29 29 29 29 29 29
18 18 18 18 18 19 20 20 20 20 20 20 21 21 20 20 20 21 20 20 20 20 19 19 18 18 18 18 17 17 17 17 17 16 14 13 12 12 11 11 10 10 9 9 9 9 9 9 9 9 9 10 9 9 9 9 9 9 9 9 9 9 9 10 10 10 9 9 10 10 10 10 10 10 10 10 10 11 11 11 11 11 12 13 14 15 18 19 20 21 22 24 24 25 26 28 28 29 30 30 31 31 31
21 21 20 20 20 21 21 21 22 22 22 22 22 22 22 22 22 22 22 22 21 21 20 20 19 19 19 19 19 19 19 18 18 16 15 14 14 13 12 12 11 11 10 10 10 10 10 10 10 11 11 11 11 10 10 10 10 10 10 10 10 10 11 11 11 11 10 11 10 10 11 11 11 11 11 11 11 11 11 11 11 12 12 12 13 14 15 16 16 17 18 20 21 21 22 24 25 26 27 28 29 30 31
22 22 22 21 21 22 22 23 22 23 23 23 23 23 23 23 23 24 24 23 23 22 21 21 21 21 20 21 21 20 20 19 18 17 17 16 16 15 14 13 12 12 11 11 10 10 10 11 11 11 12 12 12 11 11 11 11 11 11 11 11 11 12 12 12 12 11 11 11 11 10 10 10 10 10 10 10 10 11 11 11 11 10 11 12 12 13 14 14 15 16 16 16 17 18 20 21 21 22 23 25 26 27
24 24 24 23 23 23 23 23 23 23 24 24 24 24 24 24 24 25 25 24 24 23 23 23 22 22 22 22 22 22 21 20 20 19 19 18 18 17 16 15 14 13 12 12 11 11 12 12 12 12 13 13 12 12 12 11 11 11 11 11 11 11 12 12 12 11 10 10 10 10 9 9 9 9 9 9 9 9 9 9 9 10 10 10 11 12 13 14 14 15 16 16 17 17 19 18 19 20 20 21 22 23 23
25 25 25 24 24 24 25 25 24 24 24 25 25 25 25 25 25 25 26 25 25 25 24 24 24 24 24 23 23 23 23 22 22 21 21 20 19 18 17 16 15 14 13 13 13 13 13 13 13 13 13 13 12 12 11 11 11 11 11 11 11 11 10 11 11 10 9 9 9 9 8 8 8 8 8 8 8 9 8 9 9 10 11 12 13 14 14 16 17 18 18 17 18 20 20 18 18 19 20 21 22 22 23
25 26 26 25 25 25 26 26 25 25 25 26 27 27 27 26 26 26 27 26 26 26 26 26 25 25 25 25 24 24 24 24 24 23 22 21 20 19 17 17 16 15 15 14 14 14 13 13 13 13 13 13 12 12 11 11 11 10 10 10 10 10 10 9 9 9 8 8 8 8 8 8 8 8 8 8 9 9 9 9 10 11 13 14 14 15 16 16 16 17 16 15 15 15 15 15 15 16 18 19 20 21 22
25 26 26 26 26 26 27 26 26 26 26 27 27 28 28 27 26 27 27 27 26 26 27 28 27 26 26 26 26 26 25 25 25 25 24 23 21 20 19 18 18 17 17 16 15 15 14 14 14 13 13 12 11 11 10 10 10 9 9 9 9 9 9 9 9 8 8 8 8 8 8 8 8 8 8 8 8 9 9 9 10 12 14 14 15 15 15 14 13 13 13 12 12 11 12 12 13 14 15 16 17 19 20
26 26 26 26 26 26 27 27 27 27 27 28 28 28 29 28 27 27 27 27 27 26 27 29 29 28 27 27 27 27 27 26 26 26 26 25 23 22 21 20 19 18 18 17 16 15 14 14 13 13 13 12 11 10 9 9 9 9 9 9 9 9 9 9 9 9 9 8 8 8 8 8 8 8 8 8 8 9 9 9 11 12 13 14 14 13 13 12 12 11 11 10 10 10 11 12 12 13 14 15 16 17 19
26 27 27 27 27 27 27 28 28 28 28 29 29 29 29 28 28 27 27 27 27 27 28 30 30 29 28 28 28 28 28 27 27 27 27 26 25 24 22 20 19 18 18 17 16 15 14 14 13 13 12 11 10 10 9 9 9 8 9 9 9 10 9 9 9 9 9 9 9 8 8 8 8 8 8 9 9 9 10 11 11 12 13 13 13 12 11 11 10 10 10 10 10 10 11 11 12 13 13 14 15 15 17
27 27 27 27 27 27 28 28 29 29 29 30 30 30 30 29 28 28 28 28 27 27 29 30 30 30 29 29 29 28 28 28 28 27 27 27 26 24 22 20 19 18 17 16 15 14 14 14 13 12 12 11 10 10 9 9 9 9 9 9 10 10 10 10 9 9 9 9 9 9 8 8 8 8 9 9 9 10 10 11 12 13 13 13 12 11 11 10 10 10 10 10 10 10 10 10 11 12 13 13 13 13 14
28 28 28 28 27 28 28 28 29 29 29 30 31 32 32 30 29 28 28 28 28 29 30 31 31 30 30 29 29 29 28 28 28 27 27 26 25 23 21 19 17 16 16 15 14 14 14 13 13 12 12 11 11 10 10 10 9 9 9 10 10 10 10 10 10 10 9 9 9 9 9 9 9 9 10 10 10 10 10 10 11 12 13 13 12 11 10 10 10 10 10 10 10 10 10 10 11 11 12 12 12 12 12
29 28 28 28 28 28 29 29 29 29 29 30 32 33 32 30 29 28 27 28 27 28 29 30 30 30 30 29 29 29 28 28 27 26 25 23 22 20 18 17 16 15 15 14 14 13 13 13 13 12 12 11 11 11 11 10 10 10 10 10 11 11 10 10 10 10 9 9 9 9 9 9 9 10 10 11 10 10 9 10 10 11 12 12 11 11 10 9 9 10 10 10 9 9 10 10 10 11 11 11 12 12 12
29 29 28 28 29 29 30 31 30 30 29 30 32 33 32 31 29 28 27 27 26 26 26 27 28 29 28 28 28 28 27 26 26 24 23 21 19 18 16 16 15 14 14 14 13 13 13 13 12 12 12 12 11 11 11 11 11 10 11 11 11 11 11 10 10 10 10 10 10 10 10 10 10 10 10 10 10 10 10 10 11 11 11 11 11 10 10 9 9 9 10 9 9 9 9 10 10 10 10 11 11 11 11
30 29 29 29 29 31 32 32 32 31 30 31 32 33 32 30 29 28 28 27 26 25 25 26 26 27 27 27 27 26 25 24 23 22 20 19 17 16 15 15 14 14 14 13 13 13 13 13 13 12 12 12 12 12 12 11 11 11 11 11 11 11 11 11 11 11 11 10 10 10 10 10 10 10 10 10 10 10 10 10 10 11 11 11 11 10 10 10 10 10 9 9 9 9 9 9 9 9 10 10 10 11 11
29 29 28 29 30 31 31 32 32 31 30 31 32 32 31 30 29 28 28 27 26 25 24 25 25 25 26 25 25 23 22 21 21 20 19 17 16 15 15 14 14 14 13 13 13 13 13 13 13 13 13 13 12 12 12 12 12 12 12 11 11 11 11 11 11 11 11 11 11 11 11 11 11 11 11 11 11 10 10 10 10 10 11 11 11 10 10 10 10 10 10 9 9 9 9 9 9 9 10 10 10 10 10
29 29 28 28 29 30 31 31 31 31 30 31 31 31 30 29 29 28 27 26 24 24 24 24 24 24 24 23 22 21 20 20 19 18 17 16 15 15 14 14 14 14 13 13 13 13 13 13 13 13 13 13 13 13 13 12 12 12 12 12 12 12 12 12 12 12 12 12 12 12 12 12 12 12 12 11 11 11 11 11 10 11 11 11 11 10 10 10 10 10 10 9 9 9 9 9 9 9 10 10 10 10 11
29 28 27 28 29 30 31 31 31 31 31 31 31 30 28 28 28 28 27 24 23 23 23 24 24 23 22 21 20 19 19 18 17 16 16 15 15 14 14 14 14 14 14 14 14 14 14 14 14 14 14 14 14 13 14 13 13 13 13 13 13 13 13 13 13 13 13 13 13 13 13 12 12 12 12 12 12 12 12 11 11 11 11 11 11 11 11 10 10 10 10 10 9 9 9 10 10 11 11 11 11 11 11
28 27 27 28 29 30 30 31 31 31 31 31 30 28 26 26 27 27 25 23 22 21 22 22 22 22 20 19 18 18 17 16 16 15 15 15 14 14 14 14 14 14 14 14 14 14 14 14 14 14 14 14 14 14 14 14 14 14 14 14 14 14 14 14 14 14 14 13 13 13 13 13 13 13 13 13 13 12 12 12 12 12 11 11 11 11 11 11 10 10 10 10 10 10 10 10 11 11 12 11 11 12 12
28 27 26 27 29 30 30 30 31 31 31 31 29 27 25 25 26 26 24 22 21 20 20 20 20 20 19 18 17 17 16 15 15 15 15 14 14 14 14 14 14 15 15 15 15 15 15 14 14 14 14 14 14 14 15 15 15 15 15 15 15 15 15 15 15 15 14 14 14 14 14 14 13 13 13 13 13 13 13 13 13 12 12 12 12 12 12 11 11 11 11 11 11 11 12 12 12 12 13 13 13 13 13
29 27 26 27 28 29 30 30 30 30 30 30 28 25 24 25 25 25 23 21 20 19 18 17 17 17 17 17 16 16 15 15 15 15 14 14 14 14 14 15 15 15 15 15 15 15 15 15 15 15 15 15 15 15 15 15 15 15 15 16 16 16 16 16 16 16 15 15 15 15 15 15 14 14 14 14 14 14 14 14 14 14 13 13 13 13 13 12 12 12 13 14 14 14 14 14 14 15 15 15 15 15 15
31 28 27 27 28 29 29 29 29 30 29 28 26 24 24 25 24 23 21 20 19 18 16 16 16 16 16 16 15 15 15 15 14 14 14 14 15 15 15 15 15 15 16 16 16 16 16 16 16 16 16 16 16 16 16 16 16 16 16 16 16 16 17 17 17 17 17 16 16 16 16 16 16 16 15 15 15 15 15 15 15 15 15 15 14 14 14 14 14 14 15 17 17 17 17 17 17 17 18 18 18 18 18
34 31 29 29 28 29 29 29 29 28 28 26 24 24 24 23 22 21 20 19 17 16 15 15 15 15 15 15 15 15 14 14 14 14 15 15 15 16 16 16 16 16 16 16 17 17 17 17 17 17 17 17 17 17 17 17 17 17 17 17 17 17 17 17 18 18 18 18 18 18 18 17 17 17 17 17 17 17 17 17 17 16 16 16 16 16 16 16 16 17 18 19 19 19 19 20 20 20 21 21 21 21 21
37 35 33 32 31 30 30 29 28 27 25 24 24 23 23 22 20 19 18 17 16 16 15 15 15 15 15 15 15 14 14 14 15 15 15 16 16 16 17 17 17 17 17 17 17 18 18 18 18 18 18 18 18 18 18 18 18 18 18 18 18 18 18 18 19 19 19 19 19 19 19 19 19 19 19 19 19 19 19 18 18 18 18 18 18 18 18 18 18 18 19 20 20 20 21 21 22 23 24 25 25 25 25
41 39 37 36 35 34 34 32 30 28 26 26 25 24 23 22 21 19 18 17 17 16 15 15 15 15 15 15 14 14 14 15 15 16 16 17 17 18 18 18 18 18 19 19 19 19 19 19 19 19 19 19 20 20 20 21 21 21 21 20 20 20 21 21 21 21 21 21 21 21 21 21 21 21 21 21 21 21 21 20 20 20 20 20 20 20 20 20 20 21 21 21 21 22 22 23 24 25 27 30 30 30 30
44 42 42 41 41 41 40 39 36 34 32 32 30 29 27 26 25 23 22 20 19 18 16 16 15 15 15 15 15 15 15 15 16 17 17 18 18 19 19 19 20 20 20 20 20 20 20 21 21 21 21 22 22 23 23 24 24 24 24 24 24 24 24 24 24 24 24 24 24 24 24 24 24 24 24 24 24 24 24 24 23 23 23 23 23 23 23 23 23 23 23 23 24 24 24 25 27 28 30 33 34 34 35
46 46 46 46 46 46 46 45 43 42 41 40 38 36 33 31 29 27 26 24 21 19 18 17 16 16 15 15 15 15 15 16 17 18 18 19 19 20 20 21 21 21 21 22 22 22 22 23 23 24 24 25 25 26 27 27 27 27 27 27 27 27 27 27 27 28 27 27 27 27 27 28 28 28 28 28 27 27 27 27 27 27 27 27 27 27 26 26 26 26 26 26 26 26 27 27 29 30 32 35 37 39 40
49 49 50 50 50 50 49 48 47 46 45 44 42 39 35 32 30 28 26 23 22 20 19 18 17 17 16 16 16 16 16 17 18 19 19 20 20 21 22 22 23 23 23 23 24 25 25 26 26 27 28 28 29 29 30 30 30 30 30 30 30 30 30 30 30 30 30 30 30 30 30 30 30 30 30 30 30 30 30 30 30 30 30 30 30 30 29 29 29 28 28 28 27 28 28 29 30 31 33 35 38 41 42
52 52 53 53 52 52 51 50 48 47 46 45 41 37 33 31 28 26 24 22 21 20 20 20 19 18 18 17 17 17 17 18 18 19 20 21 21 22 23 24 24 25 26 26 27 27 28 29 29 30 31 32 32 32 32 32 33 33 33 33 33 33 33 33 32 32 32 32 32 33 33 33 33 33 33 33 33 33 33 33 33 33 33 33 32 32 32 31 31 30 30 29 29 28 29 29 30 31 33 35 38 40 40
52 53 53 53 53 52 51 50 48 46 45 42 39 35 32 29 27 25 24 23 22 22 21 21 20 20 19 18 18 18 18 19 19 20 21 21 22 23 25 26 28 29 29 29 30 31 31 32 33 34 34 35 35 35 35 35 35 36 36 36 37 36 36 36 36 36 36 36 36 36 36 36 36 36 36 36 35 35 35 35 35 35 35 35 34 34 34 33 33 32 31 31 30 30 30 30 31 32 33 34 36 37 38
52 51 51 52 52 51 50 48 45 43 41 38 35 32 29 28 27 26 25 25 24 24 23 23 22 21 20 20 19 19 19 20 20 21 22 23 24 26 28 30 31 32 33 33 33 34 35 36 36 37 38 38 38 38 38 38 38 39 39 40 40 40 40 40 40 39 39 39 39 39 39 39 39 39 38 38 37 37 37 36 36 36 36 36 35 35 35 34 34 33 33 33 33 32 32 33 33 33 34 34 35 36 37
50 49 49 50 50 49 47 45 42 39 37 34 31 29 28 27 27 27 27 27 27 27 26 25 24 23 22 21 21 21 21 22 22 23 24 26 28 30 33 34 35 35 35 36 36 37 38 39 40 40 40 40 40 39 39 40 40 40 41 42 42 42 42 42 42 42 42 42 42 42 42 41 41 40 39 39 38 38 37 37 37 37 37 37 36 36 36 35 35 35 35 35 35 35 35 36 36 36 36 36 37 37 38
48 48 47 47 47 46 44 41 38 35 32 30 29 28 28 28 28 28 28 28 28 28 28 27 26 25 24 24 23 23 24 24 25 26 29 31 33 35 36 37 37 38 38 39 40 41 41 41 41 41 40 40 40 41 41 41 42 42 42 43 43 44 44 44 44 44 44 44 44 44 44 43 43 42 41 40 40 39 39 39 38 38 38 38 38 37 37 37 37 37 37 37 38 38 38 38 38 38 38 38 38 39 39
46 46 45 45 45 43 40 37 34 32 30 28 28 28 28 29 30 30 30 30 30 30 31 30 29 28 27 26 26 26 27 28 29 31 34 35 37 38 39 39 40 40 40 41 42 42 42 42 42 41 41 41 42 42 43 43 44 44 44 44 45 45 46 46 46 46 46 46 46 46 46 46 45 44 44 43 43 42 42 41 41 40 40 40 39 39 39 39 39 39 39 39 40 40 40 40 40 40 39 39 39 39 39
44 44 43 43 43 41 38 35 32 30 28 28 28 29 30 31 31 32 33 33 33 33 33 32 31 30 30 29 29 30 31 33 34 36 38 39 40 40 40 40 41 42 42 42 43 44 43 43 43 43 43 43 43 44 44 45 45 46 46 46 46 46 46 47 47 47 47 48 48 48 48 48 48 47 47 46 46 45 45 44 44 43 43 42 42 41 41 41 41 41 41 41 41 41 41 40 40 40 40 39 38 38 41
43 42 41 42 42 41 37 33 30 29 28 28 29 30 31 32 33 34 35 36 36 36 35 34 33 33 32 32 34 35 37 39 40 41 42 42 42 41 41 41 42 42 43 43 44 44 45 45 45 45 45 45 45 46 46 47 47 47 47 48 48 48 48 48 49 49 49 50 50 50 50 50 50 50 50 49 49 49 48 47 47 46 45 45 44 43 43 43 43 43 43 42 42 42 42 41 41 40 40 39 37 38 42
42 42 41 41 42 41 37 33 30 29 29 29 30 32 33 34 35 36 37 38 38 38 36 35 35 35 36 37 39 41 43 44 44 45 45 45 44 44 43 43 43 44 44 44 45 46 46 46 46 47 46 47 47 47 48 48 48 49 49 50 50 50 50 50 51 51 52 52 52 52 52 52 52 51 51 51 51 51 50 50 49 48 48 47 46 46 45 45 45 45 44 44 44 43 43 42 42 41 39 38 37 37 41
44 44 43 43 44 44 41 35 31 30 30 30 32 33 35 36 37 39 40 40 40 40 39 38 38 39 41 42 44 45 46 47 47 47 46 46 45 45 44 45 45 45 45 45 46 46 47 47 48 48 48 48 49 49 50 50 50 51 51 51 52 52 52 52 53 53 53 53 53 53 52 52 52 52 52 52 52 52 52 51 50 50 49 48 48 47 47 47 47 46 46 45 45 44 43 42 41 40 38 37 36 38 43
46 46 45 45 46 46 44 38 34 32 32 33 34 35 37 39 41 43 43 44 43 43 43 42 43 43 44 45 46 47 47 47 47 46 46 45 45 45 45 45 45 45 45 45 45 46 47 47 48 49 50 50 51 52 52 52 53 53 53 54 54 54 54 54 54 54 53 53 53 52 52 52 52 52 52 52 52 52 51 51 50 50 49 49 49 48 48 48 47 47 46 45 44 43 42 41 40 38 37 36 36 38 44
48 48 47 46 47 48 47 41 37 35 35 36 38 39 41 43 45 46 46 46 46 45 45 45 45 45 45 45 45 45 45 45 45 45 44 44 44 45 45 45 45 45 46 46 47 47 48 49 50 51 52 53 54 54 55 54 55 55 55 55 55 55 55 55 54 53 52 52 51 51 51 51 51 51 51 51 51 51 51 50 50 50 49 49 49 48 48 47 47 46 45 44 43 41 40 39 38 37 36 35 36 38 42
49 49 48 48 48 49 50 45 40 38 38 41 42 44 46 47 48 48 48 47 47 46 46 45 45 44 43 42 42 42 42 42 42 43 43 44 44 44 45 45 45 46 46 47 48 50 51 53 54 55 56 56 56 56 56 56 56 56 56 56 56 55 55 54 53 52 51 51 51 50 50 50 50 50 50 50 50 50 50 50 49 49 49 48 48 47 47 46 45 45 44 42 41 40 39 38 37 36 35 35 36 38 41
51 51 50 49 49 50 51 49 45 42 42 44 46 47 47 48 48 48 47 47 46 45 44 43 42 41 40 39 39 39 39 40 41 42 43 44 44 45 46 46 47 47 47 49 51 53 55 57 57 58 58 58 58 58 58 58 57 57 57 56 56 55 55 54 53 52 52 51 51 51 50 50 50 50 50 49 49 49 49 49 49 48 48 47 47 46 45 45 44 43 42 41 40 39 38 37 36 35 35 35 35 37 39
52 52 52 51 51 52 53 53 49 46 45 46 47 47 47 47 47 47 46 46 45 44 43 42 41 39 38 37 37 37 38 39 41 42 44 45 46 46 47 48 49 51 53 54 56 56 57 58 58 58 58 58 59 59 59 59 58 57 57 57 56 56 56 55 54 54 53 53 52 52 51 51 50 50 50 50 49 49 49 48 48 48 47 46 46 45 44 43 42 41 40 40 39 38 38 37 36 35 35 35 35 36 36
53 53 53 53 53 54 56 56 53 49 46 46 46 45 45 45 46 46 46 45 44 43 42 41 40 39 38 37 38 39 41 43 44 46 47 48 49 49 50 51 53 55 57 58 59 59 59 58 58 58 58 58 58 58 59 59 59 58 57 57 57 58 58 57 56 55 55 54 53 53 52 52 51 50 50 50 50 49 49 48 48 47 46 46 45 44 43 42 41 41 40 39 39 38 37 36 35 35 34 34 34 34 35
55 55 55 55 55 56 57 58 55 51 46 44 44 44 44 45 45 45 45 44 43 42 41 41 40 40 40 41 42 43 46 48 49 51 52 52 53 53 54 55 57 58 59 59 59 60 59 58 58 57 57 57 57 58 58 59 59 59 59 59 59 59 60 59 58 57 56 55 55 54 53 52 51 51 50 50 50 49 48 48 47 47 46 45 44 43 42 42 41 40 39 39 38 37 37 36 35 35 34 34 34 34 33
57 56 56 56 56 57 58 58 56 52 46 43 43 43 43 44 45 45 45 44 43 42 42 42 43 43 44 45 46 48 50 52 53 54 55 56 56 56 56 57 58 59 59 59 59 59 59 58 57 56 56 56 57 58 59 59 59 59 59 59 60 61 61 61 60 59 58 57 56 55 54 53 52 51 51 50 50 49 49 48 47 46 46 45 44 42 42 41 40 39 39 38 38 37 37 36 35 35 34 34 34 34 33
58 57 56 55 55 56 57 58 56 52 47 43 42 42 43 44 45 45 45 44 44 44 44 44 45 46 46 47 48 49 50 52 53 54 55 55 56 56 57 57 58 59 59 59 59 58 57 56 55 55 55 56 57 58 60 60 60 60 59 59 60 61 62 62 61 60 59 58 57 56 55 54 53 52 51 51 50 49 49 48 47 46 45 44 43 42 41 40 39 39 38 38 37 37 37 36 36 35 35 34 34 34 34